THOR ABLESTAR DEB, 19293

Orbit data source: Space-Track

THOR ABLESTAR DEB, 19293 is space debris in LEO originally from a launch on Thu, 29 Jun 1961 UTC launched from the Air Force Eastern Test Range (AFETR). Debris objects in space refer to the collection of defunct objects orbiting the Earth. Examples of debris include non-operational satellites, rocket bodies, and fragments generated from explosions, collisions, or faulty payload assembly.

Loading next visibility...
Identifier
19293, 1961-015MA
Orbit
LEO
Country
Flag of USUS
Related business
Manufacturer
Unknown
Mission
Spacecraft
Bus & Motor
Unknown
Mass
Unknown
Launch date (UTC)
1961-06-29 (65 years ago)
Launch vehicle
Unknown
Launch site
Air Force Eastern Test Range (AFETR)
Object type
Payload
Rocket body
Debris
Shape & HBR
Unknown shape, 0.1 m
Radar Cross Section
Small (<0.1 m²)

Expand to show TLE details & history
Last TLE update: 1 day ago

TLE from 1 day ago
0 THOR ABLESTAR DEB
1 19293U 61015MA  26219.23803251 -.00000602  00000-0 -11275-2 0  9999
2 19293  66.9884 143.0040 0335694 166.7261 346.2620 13.12738790834434
Epoch: 2026-08-07T05:42Z
TLE epoch observation values (Epoch: 2026-08-07T05:42:46.008Z)
Latitude
25.6168°
Longitude
-90.14185°
Altitude
967.769 km
Speed
7.489 km/s
True Right ascension
20h 45m 15s
True Declination
25° 29' 13"
Sunlit
Object was in full shadow at epoch
Visualization orbit readout
Latitude
Unknown
Longitude
Unknown
Altitude
Unknown
Speed
Unknown
Apparent Right ascension
Unknown
Apparent Declination
Unknown
Sunlit
N/A
Visualization observer readout
Local Sidereal Time
21:46:23
Azimuth
Unknown
Elevation
Unknown
Doppler factor
Unknown
Orbital elements
Apogee altitude
1,465.777 km
Perigee altitude
956.251 km
Semi-major axis
7,589.151 km
Eccentricity
0.03357
Inclination
66.9884°
RAAN
143.004°
Arg. of periapsis
166.7261°
True anomaly
345.30975°
Mean anomaly
346.262°
Eccentric anomaly
345.78985°
Mean motion
3.28287 °/min
Orbital period
109.66 mins
BSTAR
-0.0011275
Loading maneuver chart data...
Computing Atmospheric mass density...

Documentation

Showing up to 5 results
|